| time (UTC) | temp F | wind direction | speed MPH | gust MPH | rain 1hr in | rain 24hr in | rain mn in | humidity % | barometer mb |
| 20260505222904 | 73 | 151 | 0.0 | 3.0 | 0.00 | 0.00 | 0.00 | 88 | 1015.7 |
| 20260505222404 | 73 | 148 | 0.0 | 5.0 | 0.00 | 0.00 | 0.00 | 88 | 1015.7 |
| 20260505220904 | 73 | 157 | 0.0 | 3.0 | 0.00 | 0.00 | 0.00 | 88 | 1015.9 |
| 20260505220404 | 73 | 151 | 0.0 | 3.0 | 0.00 | 0.00 | 0.00 | 88 | 1015.8 |
| 20260505215404 | 73 | 149 | 0.0 | 1.0 | 0.00 | 0.00 | 0.00 | 87 | 1015.8 |
| 20260505214904 | 74 | 139 | 0.0 | 0.0 | 0.00 | 0.00 | 0.00 | 87 | 1015.9 |
| 20260505213404 | 74 | 165 | 0.0 | 0.0 | 0.00 | 0.00 | 0.00 | 87 | 1016.1 |
| 20260505212904 | 74 | 156 | 0.0 | 5.0 | 0.00 | 0.00 | 0.00 | 87 | 1016.1 |
| 20260505212404 | 74 | 135 | 1.0 | 3.0 | 0.00 | 0.00 | 0.00 | 87 | 1016.1 |
| 20260505211904 | 74 | 148 | 1.0 | 6.0 | 0.00 | 0.00 | 0.00 | 87 | 1016.2 |
| 20260505211404 | 74 | 178 | 0.0 | 3.0 | 0.00 | 0.00 | 0.00 | 87 | 1016.4 |
| 20260505210904 | 74 | 146 | 1.0 | 3.0 | 0.00 | 0.00 | 0.00 | 87 | 1016.4 |
| 20260505210403 | 74 | 73 | 0.0 | 5.0 | 0.00 | 0.00 | 0.00 | 87 | 1016.4 |
| 20260505205904 | 74 | 126 | 0.0 | 1.0 | 0.00 | 0.00 | 0.00 | 87 | 1016.5 |
| 20260505204904 | 74 | 165 | 0.0 | 0.0 | 0.00 | 0.00 | 0.00 | 87 | 1016.5 |
| 20260505204404 | 74 | 155 | 0.0 | 2.0 | 0.00 | 0.00 | 0.00 | 87 | 1016.5 |
| 20260505203905 | 74 | 162 | 1.0 | 6.0 | 0.00 | 0.00 | 0.00 | 87 | 1016.5 |
| 20260505203403 | 74 | 156 | 1.0 | 7.0 | 0.00 | 0.00 | 0.00 | 87 | 1016.5 |
| 20260505201904 | 74 | 156 | 0.0 | 0.0 | 0.00 | 0.00 | 0.00 | 87 | 1016.7 |
| 20260505201405 | 73 | 160 | 0.0 | 3.0 | 0.00 | 0.00 | 0.00 | 87 | 1016.6 |
| 20260505200904 | 74 | 174 | 0.0 | 0.0 | 0.00 | 0.00 | 0.00 | 87 | 1016.7 |
| 20260505200405 | 74 | 187 | 0.0 | 0.0 | 0.00 | 0.00 | 0.00 | 87 | 1016.7 |
| 20260505195904 | 74 | 150 | 0.0 | 0.0 | 0.00 | 0.00 | 0.00 | 87 | 1016.8 |
| 20260505195404 | 74 | 152 | 0.0 | 0.0 | 0.00 | 0.00 | 0.00 | 87 | 1016.8 |
| 20260505194904 | 74 | 152 | 0.0 | 0.0 | 0.00 | 0.00 | 0.00 | 87 | 1016.7 |
| 20260505194404 | 74 | 153 | 0.0 | 0.0 | 0.00 | 0.00 | 0.00 | 87 | 1016.8 |
| 20260505192904 | 73 | 137 | 0.0 | 0.0 | 0.00 | 0.00 | 0.00 | 87 | 1016.8 |
| 20260505192404 | 73 | 168 | 0.0 | 0.0 | 0.00 | 0.00 | 0.00 | 87 | 1016.9 |
| 20260505191404 | 73 | 170 | 0.0 | 3.0 | 0.00 | 0.00 | 0.00 | 87 | 1016.9 |
| 20260505185904 | 73 | 170 | 0.0 | 3.0 | 0.00 | 0.00 | 0.00 | 86 | 1016.9 |
| 20260505185403 | 73 | 172 | 0.0 | 5.0 | 0.00 | 0.00 | 0.00 | 86 | 1016.9 |
| 20260505184904 | 73 | 184 | 0.0 | 2.0 | 0.00 | 0.00 | 0.00 | 86 | 1016.9 |
| 20260505184404 | 73 | 160 | 0.0 | 1.0 | 0.00 | 0.00 | 0.00 | 86 | 1016.9 |
| 20260505183904 | 73 | 161 | 0.0 | 0.0 | 0.00 | 0.00 | 0.00 | 86 | 1017.0 |
| 20260505183404 | 73 | 162 | 0.0 | 0.0 | 0.00 | 0.00 | 0.00 | 86 | 1017.0 |
| 20260505182904 | 73 | 162 | 0.0 | 0.0 | 0.00 | 0.00 | 0.00 | 86 | 1017.0 |
| 20260505182404 | 73 | 162 | 0.0 | 0.0 | 0.00 | 0.00 | 0.00 | 86 | 1016.9 |
| 20260505181904 | 73 | 162 | 0.0 | 0.0 | 0.00 | 0.00 | 0.00 | 86 | 1016.8 |
| 20260505181403 | 73 | 162 | 0.0 | 0.0 | 0.00 | 0.00 | 0.00 | 86 | 1016.8 |
| 20260505180405 | 73 | 174 | 0.0 | 0.0 | 0.00 | 0.00 | 0.00 | 86 | 1016.7 |
| 20260505175904 | 73 | 171 | 0.0 | 0.0 | 0.00 | 0.00 | 0.00 | 85 | 1016.7 |
| 20260505175404 | 73 | 164 | 0.0 | 1.0 | 0.00 | 0.00 | 0.00 | 85 | 1016.7 |
| 20260505174904 | 73 | 165 | 0.0 | 2.0 | 0.00 | 0.00 | 0.00 | 85 | 1016.8 |
| 20260505174405 | 73 | 163 | 0.0 | 1.0 | 0.00 | 0.00 | 0.00 | 85 | 1016.8 |
| 20260505172903 | 73 | 153 | 0.0 | 0.0 | 0.00 | 0.00 | 0.00 | 85 | 1016.8 |
| 20260505171404 | 73 | 170 | 0.0 | 2.0 | 0.00 | 0.00 | 0.00 | 85 | 1016.6 |
| 20260505170904 | 73 | 168 | 1.0 | 5.0 | 0.00 | 0.00 | 0.00 | 84 | 1016.6 |
| 20260505170404 | 73 | 153 | 0.0 | 0.0 | 0.00 | 0.00 | 0.00 | 84 | 1016.7 |
| 20260505165905 | 73 | 150 | 0.0 | 0.0 | 0.00 | 0.00 | 0.00 | 84 | 1016.8 |
| 20260505165405 | 73 | 146 | 0.0 | 0.0 | 0.00 | 0.00 | 0.00 | 84 | 1016.7 |
| 20260505164904 | 73 | 148 | 0.0 | 0.0 | 0.00 | 0.00 | 0.00 | 84 | 1016.6 |
| 20260505164404 | 73 | 144 | 0.0 | 0.0 | 0.00 | 0.00 | 0.00 | 83 | 1016.6 |
| 20260505163904 | 73 | 166 | 0.0 | 1.0 | 0.00 | 0.00 | 0.00 | 83 | 1016.6 |
| 20260505162904 | 73 | 157 | 0.0 | 0.0 | 0.00 | 0.00 | 0.00 | 83 | 1016.5 |
| 20260505161904 | 73 | 174 | 0.0 | 3.0 | 0.00 | 0.00 | 0.00 | 83 | 1016.6 |
| 20260505160904 | 74 | 160 | 0.0 | 0.0 | 0.00 | 0.00 | 0.00 | 82 | 1016.5 |
| 20260505160404 | 74 | 159 | 0.0 | 0.0 | 0.00 | 0.00 | 0.00 | 82 | 1016.4 |
| 20260505152904 | 75 | 155 | 0.0 | 3.0 | 0.00 | 0.00 | 0.00 | 80 | 1016.3 |
| 20260505152404 | 75 | 157 | 1.0 | 5.0 | 0.00 | 0.00 | 0.00 | 79 | 1016.2 |
| 20260505151904 | 75 | 172 | 0.0 | 3.0 | 0.00 | 0.00 | 0.00 | 79 | 1016.2 |
| 20260505150905 | 76 | 100 | 1.0 | 8.0 | 0.00 | 0.00 | 0.00 | 78 | 1016.0 |
| 20260505150404 | 76 | 125 | 1.0 | 5.0 | 0.00 | 0.00 | 0.00 | 78 | 1016.0 |
| 20260505140404 | 77 | 94 | 1.0 | 8.0 | 0.00 | 0.00 | 0.00 | 76 | 1015.8 |
| 20260505124904 | 79 | 114 | 4.0 | 14.0 | 0.00 | 0.00 | 0.00 | 74 | 1015.3 |
| 20260505124404 | 79 | 117 | 6.0 | 14.0 | 0.00 | 0.00 | 0.00 | 75 | 1015.2 |
| 20260505123904 | 80 | 107 | 7.0 | 20.0 | 0.00 | 0.00 | 0.00 | 74 | 1015.1 |
| 20260505123404 | 80 | 101 | 5.0 | 14.0 | 0.00 | 0.00 | 0.00 | 74 | 1015.1 |
| 20260505122904 | 80 | 39 | 3.0 | 12.0 | 0.00 | 0.00 | 0.00 | 73 | 1015.1 |
| 20260505122404 | 80 | 115 | 7.0 | 14.0 | 0.00 | 0.00 | 0.00 | 73 | 1015.1 |
| 20260505121904 | 80 | 114 | 6.0 | 14.0 | 0.00 | 0.00 | 0.00 | 73 | 1015.0 |
| 20260505120904 | 80 | 108 | 5.0 | 13.0 | 0.00 | 0.00 | 0.00 | 72 | 1015.0 |
| 20260505120404 | 80 | 102 | 7.0 | 15.0 | 0.00 | 0.00 | 0.00 | 72 | 1014.9 |
| 20260505115904 | 80 | 113 | 5.0 | 14.0 | 0.00 | 0.00 | 0.00 | 72 | 1015.0 |
| 20260505115404 | 81 | 102 | 1.0 | 14.0 | 0.00 | 0.00 | 0.00 | 71 | 1014.9 |
| 20260505114904 | 81 | 103 | 5.0 | 14.0 | 0.00 | 0.00 | 0.00 | 71 | 1014.9 |
| 20260505114403 | 81 | 98 | 4.0 | 15.0 | 0.00 | 0.00 | 0.00 | 71 | 1014.9 |
| 20260505113904 | 81 | 96 | 9.0 | 17.0 | 0.00 | 0.00 | 0.00 | 69 | 1014.9 |
| 20260505113404 | 81 | 83 | 5.0 | 13.0 | 0.00 | 0.00 | 0.00 | 69 | 1014.9 |
| 20260505112404 | 81 | 129 | 7.0 | 14.0 | 0.00 | 0.00 | 0.00 | 71 | 1014.9 |
| 20260505111904 | 81 | 105 | 6.0 | 14.0 | 0.00 | 0.00 | 0.00 | 71 | 1015.0 |
| 20260505110904 | 81 | 85 | 7.0 | 15.0 | 0.00 | 0.00 | 0.00 | 69 | 1015.0 |
| 20260505110404 | 81 | 80 | 6.0 | 14.0 | 0.00 | 0.00 | 0.00 | 69 | 1014.9 |
| 20260505101905 | 82 | 107 | 3.0 | 14.0 | 0.00 | 0.00 | 0.00 | 68 | 1014.8 |
| 20260505101404 | 82 | 99 | 6.0 | 13.0 | 0.00 | 0.00 | 0.00 | 67 | 1014.8 |
| 20260505100404 | 82 | 145 | 6.0 | 12.0 | 0.00 | 0.00 | 0.00 | 68 | 1014.8 |
| 20260505095904 | 81 | 123 | 6.0 | 13.0 | 0.00 | 0.00 | 0.00 | 69 | 1014.9 |
| 20260505095405 | 81 | 66 | 6.0 | 14.0 | 0.00 | 0.00 | 0.00 | 69 | 1014.9 |
| 20260505094904 | 82 | 85 | 4.0 | 14.0 | 0.00 | 0.00 | 0.00 | 68 | 1014.9 |
| 20260505094404 | 82 | 95 | 4.0 | 14.0 | 0.00 | 0.00 | 0.00 | 67 | 1015.0 |
| 20260505093904 | 81 | 102 | 5.0 | 15.0 | 0.00 | 0.00 | 0.00 | 69 | 1015.0 |
| 20260505093405 | 81 | 76 | 6.0 | 14.0 | 0.00 | 0.00 | 0.00 | 68 | 1015.0 |
| 20260505092904 | 81 | 83 | 2.0 | 12.0 | 0.00 | 0.00 | 0.00 | 69 | 1015.0 |
| 20260505091904 | 82 | 118 | 2.0 | 13.0 | 0.00 | 0.00 | 0.00 | 69 | 1015.0 |
| 20260505090403 | 82 | 102 | 7.0 | 14.0 | 0.00 | 0.00 | 0.00 | 67 | 1015.4 |
| 20260505085905 | 82 | 117 | 5.0 | 14.0 | 0.00 | 0.00 | 0.00 | 69 | 1015.3 |
| 20260505085404 | 82 | 114 | 5.0 | 14.0 | 0.00 | 0.00 | 0.00 | 65 | 1015.4 |
| 20260505084904 | 82 | 86 | 6.0 | 16.0 | 0.00 | 0.00 | 0.00 | 67 | 1015.5 |
| 20260505084404 | 81 | 134 | 8.0 | 14.0 | 0.00 | 0.00 | 0.00 | 64 | 1015.6 |
| 20260505083904 | 82 | 108 | 6.0 | 14.0 | 0.00 | 0.00 | 0.00 | 66 | 1015.7 |
| 20260505083404 | 81 | 141 | 9.0 | 17.0 | 0.00 | 0.00 | 0.00 | 67 | 1015.7 |
| 20260505082905 | 82 | 74 | 6.0 | 13.0 | 0.00 | 0.00 | 0.00 | 68 | 1015.7 |
| 20260505082404 | 82 | 125 | 6.0 | 14.0 | 0.00 | 0.00 | 0.00 | 69 | 1015.8 |
| 20260505081904 | 81 | 124 | 6.0 | 16.0 | 0.00 | 0.00 | 0.00 | 69 | 1015.8 |
| 20260505081404 | 81 | 127 | 7.0 | 14.0 | 0.00 | 0.00 | 0.00 | 69 | 1015.8 |
| 20260505080904 | 82 | 111 | 4.0 | 20.0 | 0.00 | 0.00 | 0.00 | 69 | 1016.0 |
| 20260505080404 | 81 | 130 | 5.0 | 16.0 | 0.00 | 0.00 | 0.00 | 70 | 1016.0 |
| 20260505075904 | 81 | 79 | 2.0 | 13.0 | 0.00 | 0.00 | 0.00 | 72 | 1016.0 |
| 20260505075404 | 81 | 81 | 7.0 | 16.0 | 0.00 | 0.00 | 0.00 | 70 | 1016.1 |
| 20260505074404 | 81 | 141 | 6.0 | 17.0 | 0.00 | 0.00 | 0.00 | 70 | 1016.0 |
| 20260505073904 | 81 | 91 | 7.0 | 16.0 | 0.00 | 0.00 | 0.00 | 71 | 1016.1 |
| 20260505073404 | 80 | 85 | 7.0 | 15.0 | 0.00 | 0.00 | 0.00 | 71 | 1016.2 |
| 20260505072404 | 81 | 110 | 7.0 | 20.0 | 0.00 | 0.00 | 0.00 | 71 | 1016.4 |
| 20260505071904 | 81 | 100 | 6.0 | 15.0 | 0.00 | 0.00 | 0.00 | 71 | 1016.4 |
| 20260505071404 | 80 | 80 | 5.0 | 15.0 | 0.00 | 0.00 | 0.00 | 72 | 1016.4 |
| 20260505070904 | 81 | 106 | 4.0 | 18.0 | 0.00 | 0.00 | 0.00 | 72 | 1016.5 |
| 20260505065904 | 80 | 123 | 8.0 | 14.0 | 0.00 | 0.00 | 0.00 | 72 | 1016.5 |
| 20260505065404 | 81 | 76 | 8.0 | 13.0 | 0.00 | 0.00 | 0.00 | 71 | 1016.6 |
| 20260505064905 | 80 | 95 | 7.0 | 15.0 | 0.00 | 0.00 | 0.00 | 71 | 1016.7 |
| 20260505063905 | 81 | 105 | 7.0 | 14.0 | 0.00 | 0.00 | 0.00 | 70 | 1016.7 |
| 20260505062904 | 80 | 98 | 7.0 | 14.0 | 0.00 | 0.00 | 0.00 | 70 | 1016.8 |
| 20260505062404 | 80 | 101 | 9.0 | 20.0 | 0.00 | 0.00 | 0.00 | 69 | 1016.9 |
| 20260505061904 | 80 | 92 | 6.0 | 14.0 | 0.00 | 0.00 | 0.00 | 71 | 1016.9 |
| 20260505061405 | 80 | 133 | 10.0 | 16.0 | 0.00 | 0.00 | 0.00 | 70 | 1016.9 |
| 20260505060404 | 79 | 112 | 5.0 | 12.0 | 0.00 | 0.00 | 0.00 | 74 | 1017.0 |
| 20260505055904 | 79 | 118 | 3.0 | 12.0 | 0.00 | 0.00 | 0.00 | 73 | 1017.0 |
| 20260505055403 | 79 | 95 | 6.0 | 13.0 | 0.00 | 0.00 | 0.00 | 73 | 1017.0 |
| 20260505054904 | 79 | 105 | 5.0 | 14.0 | 0.00 | 0.00 | 0.00 | 72 | 1017.1 |
| 20260505054404 | 80 | 118 | 4.0 | 14.0 | 0.00 | 0.00 | 0.00 | 71 | 1017.0 |
| 20260505053904 | 80 | 122 | 7.0 | 15.0 | 0.00 | 0.00 | 0.00 | 70 | 1017.1 |
| 20260505052904 | 80 | 118 | 8.0 | 15.0 | 0.00 | 0.00 | 0.00 | 70 | 1017.2 |
| 20260505052404 | 80 | 92 | 7.0 | 15.0 | 0.00 | 0.00 | 0.00 | 70 | 1017.2 |
| 20260505051904 | 80 | 91 | 6.0 | 13.0 | 0.00 | 0.00 | 0.00 | 71 | 1017.2 |
| 20260505051404 | 79 | 98 | 7.0 | 12.0 | 0.00 | 0.00 | 0.00 | 71 | 1017.2 |
| 20260505050904 | 79 | 116 | 8.0 | 14.0 | 0.00 | 0.00 | 0.00 | 70 | 1017.3 |
| 20260505050404 | 79 | 72 | 6.0 | 15.0 | 0.00 | 0.00 | 0.00 | 71 | 1017.2 |
| 20260505041404 | 75 | 156 | 1.0 | 5.0 | 0.00 | 0.00 | 0.00 | 79 | 1017.0 |
| 20260505040904 | 74 | 153 | 0.0 | 1.0 | 0.00 | 0.00 | 0.00 | 80 | 1016.9 |
| 20260505040404 | 73 | 153 | 1.0 | 3.0 | 0.00 | 0.00 | 0.00 | 80 | 1016.8 |
| 20260505035904 | 73 | 156 | 0.0 | 0.0 | 0.00 | 0.00 | 0.00 | 80 | 1016.8 |
| 20260505034905 | 73 | 161 | 1.0 | 3.0 | 0.00 | 0.00 | 0.00 | 80 | 1016.7 |
| 20260505034404 | 73 | 135 | 1.0 | 3.0 | 0.00 | 0.00 | 0.00 | 80 | 1016.6 |
| 20260505033904 | 72 | 165 | 1.0 | 5.0 | 0.00 | 0.00 | 0.00 | 80 | 1016.6 |
| 20260505033404 | 72 | 156 | 1.0 | 3.0 | 0.00 | 0.00 | 0.00 | 80 | 1016.5 |
| 20260505032904 | 72 | 163 | 0.0 | 0.0 | 0.00 | 0.00 | 0.00 | 80 | 1016.5 |
| 20260505032404 | 72 | 159 | 1.0 | 5.0 | 0.00 | 0.00 | 0.00 | 80 | 1016.4 |
| 20260505031904 | 72 | 157 | 0.0 | 5.0 | 0.00 | 0.00 | 0.00 | 81 | 1016.4 |
| 20260505031404 | 71 | 159 | 0.0 | 3.0 | 0.00 | 0.00 | 0.00 | 81 | 1016.4 |
| 20260505030404 | 71 | 175 | 0.0 | 1.0 | 0.00 | 0.00 | 0.00 | 82 | 1016.4 |
| 20260505025404 | 70 | 178 | 0.0 | 3.0 | 0.00 | 0.00 | 0.00 | 83 | 1016.2 |
| 20260505024904 | 70 | 176 | 0.0 | 5.0 | 0.00 | 0.00 | 0.00 | 83 | 1016.2 |
| 20260505024404 | 70 | 173 | 0.0 | 6.0 | 0.00 | 0.00 | 0.00 | 83 | 1016.2 |
| 20260505023904 | 70 | 180 | 0.0 | 5.0 | 0.00 | 0.00 | 0.00 | 83 | 1016.1 |
| 20260505023403 | 70 | 180 | 1.0 | 3.0 | 0.00 | 0.00 | 0.00 | 83 | 1016.0 |
| 20260505022905 | 70 | 180 | 0.0 | 3.0 | 0.00 | 0.00 | 0.00 | 83 | 1016.0 |
| 20260505022404 | 71 | 174 | 0.0 | 3.0 | 0.00 | 0.00 | 0.00 | 83 | 1016.0 |
| 20260505021403 | 71 | 156 | 0.0 | 2.0 | 0.00 | 0.00 | 0.00 | 83 | 1016.0 |
| 20260505020904 | 71 | 162 | 0.0 | 3.0 | 0.00 | 0.00 | 0.00 | 83 | 1015.9 |
| 20260505020404 | 71 | 173 | 0.0 | 2.0 | 0.00 | 0.00 | 0.00 | 83 | 1015.9 |
| 20260505015904 | 71 | 190 | 0.0 | 3.0 | 0.00 | 0.00 | 0.00 | 83 | 1015.8 |
| 20260505015404 | 70 | 171 | 1.0 | 6.0 | 0.00 | 0.00 | 0.00 | 83 | 1015.8 |
| 20260505014404 | 70 | 177 | 0.0 | 3.0 | 0.00 | 0.00 | 0.00 | 84 | 1015.8 |
| 20260505013904 | 70 | 183 | 0.0 | 2.0 | 0.00 | 0.00 | 0.00 | 84 | 1015.8 |
| 20260505013404 | 70 | 187 | 0.0 | 3.0 | 0.00 | 0.00 | 0.00 | 84 | 1015.7 |
| 20260505012904 | 70 | 182 | 0.0 | 2.0 | 0.00 | 0.00 | 0.00 | 84 | 1015.7 |
| 20260505012404 | 70 | 163 | 0.0 | 3.0 | 0.00 | 0.00 | 0.00 | 83 | 1015.6 |
| 20260505011904 | 70 | 164 | 1.0 | 3.0 | 0.00 | 0.00 | 0.00 | 83 | 1015.6 |
| 20260505011404 | 70 | 172 | 0.0 | 5.0 | 0.00 | 0.00 | 0.00 | 83 | 1015.6 |
| 20260505010904 | 70 | 168 | 0.0 | 2.0 | 0.00 | 0.00 | 0.00 | 83 | 1015.6 |
| 20260505010404 | 70 | 182 | 0.0 | 0.0 | 0.00 | 0.00 | 0.00 | 83 | 1015.6 |
| 20260505005904 | 70 | 156 | 0.0 | 1.0 | 0.00 | 0.00 | 0.00 | 83 | 1015.6 |
| 20260505005404 | 70 | 167 | 0.0 | 3.0 | 0.00 | 0.00 | 0.00 | 83 | 1015.6 |
| 20260505004904 | 70 | 167 | 0.0 | 2.0 | 0.00 | 0.00 | 0.00 | 83 | 1015.6 |
| 20260505004404 | 70 | 188 | 0.0 | 5.0 | 0.00 | 0.00 | 0.00 | 83 | 1015.6 |
| 20260505003404 | 70 | 168 | 0.0 | 6.0 | 0.00 | 0.00 | 0.00 | 83 | 1015.6 |
| 20260505002904 | 70 | 169 | 0.0 | 3.0 | 0.00 | 0.00 | 0.00 | 83 | 1015.7 |
| 20260505001904 | 70 | 169 | 0.0 | 3.0 | 0.00 | 0.00 | 0.00 | 83 | 1015.7 |
| 20260505001405 | 70 | 162 | 0.0 | 0.0 | 0.00 | 0.00 | 0.00 | 83 | 1015.7 |
| 20260505000405 | 70 | 185 | 0.0 | 3.0 | 0.00 | 0.00 | 0.00 | 83 | 1015.8 |
| 20260504235904 | 71 | 128 | 0.0 | 3.0 | 0.00 | 0.00 | 0.00 | 83 | 1015.8 |
| 20260504235404 | 71 | 169 | 0.0 | 3.0 | 0.00 | 0.00 | 0.00 | 83 | 1015.9 |
| 20260504234904 | 71 | 166 | 0.0 | 1.0 | 0.00 | 0.00 | 0.00 | 83 | 1015.8 |
| 20260504234404 | 71 | 129 | 0.0 | 1.0 | 0.00 | 0.00 | 0.00 | 83 | 1015.9 |
| 20260504233904 | 71 | 153 | 0.0 | 1.0 | 0.00 | 0.00 | 0.00 | 83 | 1015.8 |
| 20260504233404 | 70 | 165 | 0.0 | 0.0 | 0.00 | 0.00 | 0.00 | 83 | 1015.9 |
| 20260504232904 | 70 | 160 | 0.0 | 0.0 | 0.00 | 0.00 | 0.00 | 83 | 1015.8 |
| 20260504232405 | 71 | 158 | 0.0 | 0.0 | 0.00 | 0.00 | 0.00 | 83 | 1015.9 |
| 20260504231904 | 71 | 158 | 0.0 | 0.0 | 0.00 | 0.00 | 0.00 | 83 | 1015.9 |
| 20260504231404 | 71 | 175 | 0.0 | 2.0 | 0.00 | 0.00 | 0.00 | 83 | 1015.9 |
| 20260504230904 | 71 | 182 | 1.0 | 3.0 | 0.00 | 0.00 | 0.00 | 83 | 1015.9 |
| 20260504230404 | 71 | 185 | 0.0 | 0.0 | 0.00 | 0.00 | 0.00 | 83 | 1016.0 |
| 20260504225404 | 71 | 181 | 0.0 | 2.0 | 0.00 | 0.00 | 0.00 | 83 | 1016.0 |
| 20260504224904 | 71 | 183 | 0.0 | 0.0 | 0.00 | 0.00 | 0.00 | 83 | 1016.0 |
| 20260504224404 | 71 | 183 | 0.0 | 0.0 | 0.00 | 0.00 | 0.00 | 83 | 1016.0 |
| 20260504223904 | 71 | 148 | 0.0 | 1.0 | 0.00 | 0.00 | 0.00 | 83 | 1016.0 |
| 20260504223405 | 71 | 178 | 0.0 | 2.0 | 0.00 | 0.00 | 0.00 | 83 | 1016.1 |